Weather History for Pittsfield, IL

Change the Weather History Date:

Tuesday, January 10, 2012

  Actual Average (KUIN) Record (KUIN)
Temperature  
Mean Temperature 42 °F 26 °F  
Max Temperature 55 °F 34 °F 59 °F (1939)
Min Temperature 29 °F 18 °F -21 °F (1982)
Degree Days  
Heating Degree Days 23 39  
Month to date heating degree days 386  
Since 1 July heating degree days 2577  
Cooling Degree Days 0 0  
Month to date cooling degree days 0  
Year to date cooling degree days 0  
Moisture  
Dew Point 26 °F    
Average Humidity 55    
Maximum Humidity 86    
Minimum Humidity 26    
Precipitation  
Precipitation 0.00 in 0.06 in 0.84 in (1904)
Month to date precipitation 0.54  
Year to date precipitation 0.54  
Sea Level Pressure  
Sea Level Pressure 30.02 in    
Wind  
Wind Speed 5 mph (SW)    
Max Wind Speed 13 mph    
Max Gust Speed 16 mph    
Visibility 10 miles    
Events      
T = Trace of Precipitation, MM = Missing Value Source: NWS Daily Summary

Daily Weather History Graph

Daily Weather History Graph

Search for Another Location

Airport:

Trip Planner

Search our weather history database for the weather conditions in past years. The results will help you decide how hot, cold, wet, or windy it might be!

Date:

Astronomy

Jan. 10, 2012 Rise Set
Actual Time 7:23 AM CST 4:57 PM CST
Civil Twilight 6:53 AM CST 5:27 PM CST
Nautical Twilight 6:20 AM CST 6:00 PM CST
Astronomical Twilight 5:47 AM CST 6:33 PM CST
Moon 6:49 PM CST (1/10) 8:02 AM CST (1/10)
Length of Visible Light 10h 33m
Length of Day
9h 33m
Full, 98% of the Moon is Illuminated
Jan 10
Full
Jan 16
Last Quarter
Jan 23
New
Jan 30
First Quarter
Feb 7
Full

Hourly Weather History & Observations

Time (CST) Temp. Windchill Dew Point Humidity Pressure Visibility Wind Dir Wind Speed Gust Speed Precip Events Conditions
12:15 AM 35.6 °F 30.7 °F 25.7 °F 67% 30.09 in 10.0 mi SSW 5.8 mph - N/A   Clear
12:35 AM 35.4 °F 30.5 °F 26.1 °F 69% 30.08 in 10.0 mi WSW 5.8 mph - N/A   Clear
12:55 AM 36.5 °F 32.7 °F 25.7 °F 65% 30.07 in 10.0 mi WSW 4.6 mph - N/A   Clear
1:15 AM 35.8 °F 33.0 °F 25.7 °F 67% 30.07 in 10.0 mi WSW 3.5 mph - N/A   Clear
1:35 AM 34.9 °F 32.0 °F 25.5 °F 69% 30.06 in 10.0 mi NW 3.5 mph - N/A   Clear
1:55 AM 29.5 °F 24.5 °F 25.2 °F 84% 30.08 in 10.0 mi WSW 4.6 mph - N/A   Clear
2:15 AM 32.9 °F 29.8 °F 25.7 °F 75% 30.08 in 10.0 mi WSW 3.5 mph - N/A   Clear
2:35 AM 33.3 °F 27.9 °F 25.3 °F 73% 30.08 in 10.0 mi SSW 5.8 mph - N/A   Clear
2:55 AM 34.0 °F 26.6 °F 26.6 °F 74% 30.09 in 10.0 mi SSW 9.2 mph - N/A   Clear
3:15 AM 34.7 °F 28.1 °F 26.6 °F 72% 30.09 in 10.0 mi SW 8.1 mph - N/A   Clear
3:35 AM 34.9 °F 27.7 °F 26.4 °F 71% 30.08 in 10.0 mi SW 9.2 mph - N/A   Clear
3:55 AM 34.0 °F 27.2 °F 26.4 °F 74% 30.08 in 10.0 mi SW 8.1 mph - N/A   Clear
4:15 AM 33.8 °F 27.7 °F 26.4 °F 74% 30.09 in 10.0 mi SW 6.9 mph - N/A   Clear
4:35 AM 34.3 °F 27.7 °F 26.6 °F 73% 30.08 in 10.0 mi SW 8.1 mph - N/A   Clear
4:55 AM 34.7 °F 28.1 °F 26.4 °F 72% 30.08 in 10.0 mi SW 8.1 mph - N/A   Clear
5:15 AM 34.3 °F 27.7 °F 26.2 °F 72% 30.07 in 10.0 mi SW 8.1 mph - N/A   Clear
5:35 AM 35.4 °F 29.0 °F 26.4 °F 70% 30.08 in 10.0 mi WSW 8.1 mph - N/A   Clear
5:55 AM 34.7 °F 30.6 °F 26.1 °F 71% 30.08 in 10.0 mi West 4.6 mph - N/A   Clear
6:15 AM 33.8 °F 30.8 °F 25.7 °F 72% 30.09 in 10.0 mi WNW 3.5 mph - N/A   Clear
6:35 AM 33.8 °F 29.6 °F 25.7 °F 72% 30.09 in 10.0 mi West 4.6 mph - N/A   Clear
6:55 AM 31.8 °F 27.3 °F 25.7 °F 78% 30.09 in 10.0 mi WSW 4.6 mph - N/A   Clear
7:15 AM 31.8 °F 28.5 °F 25.5 °F 78% 30.09 in 10.0 mi West 3.5 mph - N/A   Clear
7:35 AM 30.9 °F 26.2 °F 25.2 °F 79% 30.08 in 10.0 mi WSW 4.6 mph - N/A   Clear
7:55 AM 30.2 °F 26.7 °F 24.8 °F 80% 30.07 in 10.0 mi West 3.5 mph - N/A   Clear
8:15 AM 30.2 °F 25.4 °F 26.6 °F 86% 30.07 in 10.0 mi West 4.6 mph - N/A   Clear
8:35 AM 32.4 °F 29.1 °F 28.0 °F 84% 30.07 in 10.0 mi WSW 3.5 mph - N/A   Clear
8:55 AM 37.9 °F 34.4 °F 28.6 °F 69% 30.07 in 10.0 mi WSW 4.6 mph - N/A   Clear
9:15 AM 41.2 °F 38.2 °F 29.5 °F 63% 30.08 in 10.0 mi West 4.6 mph - N/A   Clear
9:35 AM 42.8 °F 40.1 °F 28.4 °F 57% 30.07 in 10.0 mi West 4.6 mph - N/A   Clear
9:55 AM 44.4 °F 42.0 °F 28.6 °F 54% 30.07 in 10.0 mi West 4.6 mph - N/A   Clear
10:15 AM 46.0 °F 44.8 °F 28.8 °F 51% 30.06 in 10.0 mi West 3.5 mph - N/A   Clear
10:35 AM 47.5 °F - 28.9 °F 49% 30.05 in 10.0 mi Calm Calm - N/A   Clear
10:55 AM 49.3 °F - 29.7 °F 47% 30.04 in 10.0 mi Calm Calm - N/A   Clear
11:15 AM 50.4 °F - 27.9 °F 42% 30.03 in 10.0 mi SSW 3.5 mph - N/A   Clear
11:35 AM 51.6 °F - 27.5 °F 39% 30.01 in 10.0 mi Calm Calm - N/A   Clear
11:55 AM 53.1 °F - 27.7 °F 38% 30.00 in 10.0 mi Calm Calm - N/A   Clear
12:15 PM 54.0 °F - 27.1 °F 36% 29.99 in 10.0 mi SW 4.6 mph - N/A   Clear
12:35 PM 54.5 °F - 26.4 °F 34% 29.98 in 10.0 mi SSW 10.4 mph - N/A   Clear
12:55 PM 55.2 °F - 26.6 °F 33% 29.98 in 10.0 mi SSW 10.4 mph - N/A   Clear
1:15 PM 54.9 °F - 25.2 °F 32% 29.97 in 10.0 mi SSW 12.7 mph - N/A   Clear
1:35 PM 54.7 °F - 25.0 °F 32% 29.95 in 10.0 mi South 12.7 mph - N/A   Clear
1:55 PM 54.7 °F - 25.9 °F 33% 29.93 in 10.0 mi SSW 11.5 mph - N/A   Clear
2:15 PM 55.4 °F - 26.6 °F 33% 29.93 in 10.0 mi SSW 10.4 mph 16.1 mph N/A   Clear
2:35 PM 55.6 °F - 26.2 °F 32% 29.92 in 10.0 mi SSW 8.1 mph - N/A   Clear
2:55 PM 55.8 °F - 24.6 °F 30% 29.91 in 10.0 mi SSW 6.9 mph - N/A   Clear
3:15 PM 55.8 °F - 22.1 °F 27% 29.90 in 10.0 mi SSW 5.8 mph - N/A   Clear
3:35 PM 55.4 °F - 21.0 °F 26% 29.89 in 10.0 mi South 5.8 mph - N/A   Clear
3:55 PM 54.9 °F - 21.2 °F 27% 29.88 in 10.0 mi SSW 4.6 mph - N/A   Clear
4:15 PM 54.0 °F - 21.2 °F 28% 29.88 in 10.0 mi South 4.6 mph - N/A   Clear
4:35 PM 52.7 °F - 21.2 °F 29% 29.87 in 10.0 mi SSE 3.5 mph - N/A   Clear
4:55 PM 52.2 °F - 20.8 °F 29% 29.87 in 10.0 mi Calm Calm - N/A   Clear
5:15 PM 50.7 °F - 21.0 °F 31% 29.87 in 10.0 mi Calm Calm - N/A   Clear
5:35 PM 47.3 °F - 21.9 °F 37% 29.87 in 10.0 mi Calm Calm - N/A   Clear
5:55 PM 46.0 °F - 21.9 °F 39% 29.87 in 10.0 mi Calm Calm - N/A   Clear
6:15 PM 43.7 °F 41.1 °F 22.5 °F 43% 29.87 in 10.0 mi SSE 4.6 mph - N/A   Clear
6:35 PM 41.2 °F - 23.9 °F 50% 29.87 in 10.0 mi Calm Calm - N/A   Clear
6:55 PM 40.6 °F - 23.2 °F 50% 29.87 in 10.0 mi Calm Calm - N/A   Clear
7:15 PM 39.2 °F - 24.8 °F 56% 29.86 in 10.0 mi Calm Calm - N/A   Clear
7:35 PM 39.4 °F - 24.6 °F 56% 29.86 in 10.0 mi Calm Calm - N/A   Clear
7:55 PM 36.1 °F - 24.3 °F 62% 29.85 in 10.0 mi Calm Calm - N/A   Clear
8:15 PM 33.1 °F - 23.9 °F 69% 29.84 in 10.0 mi Calm Calm - N/A   Clear
8:35 PM 32.4 °F 29.1 °F 24.8 °F 74% 29.83 in 10.0 mi WNW 3.5 mph - N/A   Clear
8:55 PM 32.0 °F 28.7 °F 24.1 °F 73% 29.83 in 10.0 mi WNW 3.5 mph - N/A   Clear
9:15 PM 29.8 °F - 24.4 °F 80% 29.83 in 10.0 mi Calm Calm - N/A   Clear
9:35 PM 31.6 °F - 24.6 °F 75% 29.83 in 10.0 mi Calm Calm - N/A   Clear
9:55 PM 32.0 °F - 24.8 °F 75% 29.82 in 10.0 mi Calm Calm - N/A   Clear
10:15 PM 31.8 °F - 24.6 °F 75% 29.82 in 10.0 mi Calm Calm - N/A   Clear
10:35 PM 31.8 °F - 24.3 °F 74% 29.81 in 10.0 mi Calm Calm - N/A   Clear
10:55 PM 31.8 °F - 23.9 °F 73% 29.80 in 10.0 mi Calm Calm - N/A   Clear
11:15 PM 33.4 °F - 24.8 °F 71% 29.79 in 10.0 mi Calm Calm - N/A   Clear
11:35 PM 31.3 °F - 23.9 °F 74% 29.78 in 10.0 mi Calm Calm - N/A   Clear
11:55 PM 31.1 °F - 24.4 °F 76% 29.76 in 10.0 mi Calm Calm - N/A   Clear